Simultaneous Nadir Overpasses (SNOs) Predictions

Prediction of SNOs near equator between NOAA-19 and NPP Satellite Orbit:

Table of predicted SNOs near equator for the next 14.0 days since TLE Epoch: 2/23/2012
Index Date (NOAA-19) Time (NOAA-19) NOAA-19 Lat,Lon Date (NPP) Time (NPP) NPP Lat,Lon Distance(km) Time Diff (sec)
1 03/04/2012 07:07:36 29.98, 90.95 03/04/2012 07:04:20 29.79, 89.94 99.44 196
2 03/04/2012 07:58:40 -29.96,-101.81 03/04/2012 07:55:01 -29.75,-102.72 90.57 219
3 03/04/2012 08:49:41 29.96, 65.44 03/04/2012 08:45:50 29.80, 64.57 85.59 231
4 03/04/2012 09:40:46 -29.99,-127.34 03/04/2012 09:36:32 -29.82,-128.11 76.64 254
5 03/04/2012 10:31:47 29.99, 39.90 03/04/2012 10:27:21 29.86, 39.17 71.69 266
6 03/04/2012 11:22:51 -29.96,-152.86 03/04/2012 11:18:02 -29.82,-153.49 62.78 289
7 03/04/2012 12:13:52 29.96, 14.39 03/04/2012 12:08:51 29.87, 13.80 57.87 301
8 03/04/2012 13:04:57 -29.99,-178.39 03/04/2012 12:59:33 -29.89,-178.88 48.86 324
9 03/04/2012 13:55:58 29.99, -11.14 03/04/2012 13:50:21 29.87, -11.58 44.01 337
10 03/04/2012 14:47:02 -29.97, 156.10 03/04/2012 14:41:03 -29.89, 155.74 35.01 359
11 03/04/2012 15:38:03 29.97, -36.66 03/04/2012 15:31:51 29.88, -36.95 30.17 372
12 03/04/2012 16:29:08 -30.00, 130.57 03/04/2012 16:22:34 -29.96, 130.35 21.12 394
13 03/04/2012 17:20:09 30.00, -62.19 03/04/2012 17:13:22 29.94, -62.35 16.33 407
14 03/04/2012 18:11:13 -29.97, 105.05 03/04/2012 18:04:04 -29.96, 104.98 7.30 429
15 03/04/2012 19:02:14 29.97, -87.70 03/04/2012 18:54:52 29.95, -87.72 3.12 442
16 03/04/2012 19:47:53 -11.06, 84.28 03/04/2012 19:40:11 -11.06, 84.28 0.33 462
17 03/04/2012 20:35:07 -2.31,-105.44 03/04/2012 20:27:13 -2.28,-105.43 3.44 474
18 03/04/2012 21:26:29 1.15, 61.54 03/04/2012 21:18:14 1.10, 61.64 12.49 495
19 03/04/2012 22:17:49 -0.17,-131.45 03/04/2012 22:09:19 -0.16,-131.28 19.07 510
20 03/04/2012 23:09:10 -0.92, 35.55 03/04/2012 23:00:19 -0.97, 35.80 28.91 531
21 03/05/2012 00:00:29 1.86,-157.43 03/04/2012 23:51:24 1.91,-157.11 35.57 545
22 03/05/2012 00:51:50 -2.94, 9.57 03/05/2012 00:42:24 -3.03, 9.97 45.57 566
23 03/05/2012 01:43:10 3.94, 176.58 03/05/2012 01:33:30 4.03, 177.04 52.13 580
24 03/05/2012 02:34:30 -4.95, -16.41 03/05/2012 02:24:30 -5.15, -15.88 62.77 600




NCC Satellite Simultaneous Nadir Overpasses (SNOs) Prediction Service
